Retour au catalogue

BROKKER-2 ODIN

LostScienceHEO
NORAD 63102·PAYLOAD·🇺🇸 United States

Lancé Feb 27, 2025 depuis Cape Canaveral Space Force Station

Loading…

Prochains Passages (prochaines 24 heures)

TLE

PériméSource: Space-Track

Époque: Feb 27, 2025, 00:53 UTC

1 63102U 25038D   25058.03746186 -.00007054  00000-0  00000-0 0  9992
2 63102  28.5200 357.2438 9653600 216.4100   0.0142  0.10463308    08

Suivez BROKKER-2 ODIN en temps réel avec AllMySat

Download on the App Store